Meteopurmerend
purmerend
Purmerend - Baaienwijk



My webcam  My webcam


waarschuwing voor Onweer Meer informatie blitzortung!


Regen radar Meer informatie rain snow radar


Bezoek onze andere website:

CandyAppleRed WebdesignWebdesign Purmerend Candy Apple Red

MeteopurmerendBlog

Template documentation
and downloads



Onweer van: 26-07-2021 13:00 tot: 21:00 waarschuwing voor: Onweer niveau: Geel info button
Enkele onweersbuien, lokaal met hagel en veel neerslag in korte tijd.Kans op blikseminslag, hagel en veel neerslag in korte tijd.Verkeer en buitenactiviteiten kunnen hinder ondervinden.Mijd open water en open gebied, schuil niet onder bomen.Volg weerberichten en waarschuwingen.

15 daagse weersverwachting Seraing (BE)

  • Overzicht
  • Per uur
  • 15 dagen
  • Extra
  • Vergelijk
  • Kaarten
  • Dagkaart
  • Meer »
  • Info
  • Statistieken
  • Directe link
    Temp 6h Neerslag Wind  
 05:59     21:31    Daglengte: 15:32 Vandaag
20:00
19°
2.2 mm
3
 06:00     21:29    Daglengte: 15:29 Morgen
02:00
16°
 
3
08:00
16°
 
3
14:00
21°
1.0 mm
5
20:00
19°
1.5 mm
4
 06:02     21:28    Daglengte: 15:26 Woensdag 28 Jul
02:00
16°
 
3
08:00
16°
 
5
14:00
20°
5.1 mm
6
20:00
19°
1.6 mm
4
 06:03     21:26    Daglengte: 15:23 Donderdag 29 Jul
02:00
15°
5.1 mm
4
08:00
15°
5.2 mm
6
Locatie info
Region: Wallonien
Latitude: 50.6101°N
Longitude: 5.5156°E
185 masl
Postcode: 4100
Temp/Neerslag /Baro Onweer/Dauwpunt
    Temp Baro 1h Neerslag Dauwpunt Wind UV Bewolking  
 05:59     21:31    Daglengte: 15:32 Vandaag
15:00
21°
1010.7 hPa
48%
12.1°
5
Windvlaag: 7 m/s
72%
16:00
21°
1010.7 hPa
82%
11.9°
4
Windvlaag: 5.1 m/s
84%
17:00
21°
1010.8 hPa 1.3 mm
82%
11.7°
4
Windvlaag: 4.6 m/s
83%
18:00
20°
1010.8 hPa 0.6 mm
82%
11.8°
4
Windvlaag: 4.2 m/s
61%
19:00
20°
1010.7 hPa
82%
11.7°
4
Windvlaag: 4 m/s
58%
20:00
19°
1011.0 hPa 0.3 mm
82%
11.8°
3
Windvlaag: 4.5 m/s
63%
21:00
18°
1011.4 hPa
82%
12.6°
3
Windvlaag: 4.5 m/s
53%
22:00
18°
1011.8 hPa
82%
13.8°
3
Windvlaag: 5 m/s
80%
23:00
17°
1012.3 hPa
82%
15.1°
3
Windvlaag: 5.3 m/s
47%
 06:00     21:29    Daglengte: 15:29 Morgen
00:00
17°
1012.5 hPa
77%
15.2°
3
Windvlaag: 5.5 m/s
17%
01:00
17°
1012.5 hPa
73%
15.0°
3
Windvlaag: 6 m/s
53%
02:00
16°
1012.5 hPa
32%
15.3°
3
Windvlaag: 6 m/s
21%
03:00
16°
1012.6 hPa
14%
14.8°
3
Windvlaag: 6 m/s
21%
04:00
16°
1012.4 hPa
14%
14.7°
3
Windvlaag: 6.2 m/s
14%
05:00
15°
1012.2 hPa
14%
14.5°
3
Windvlaag: 6.7 m/s
37%
06:00
16°
1012.0 hPa
14%
14.6°
3
Windvlaag: 7.2 m/s
58%
07:00
16°
1012.1 hPa
14%
14.5°
3
Windvlaag: 7.2 m/s
68%
08:00
16°
1012.1 hPa
14%
14.7°
3
Windvlaag: 6.8 m/s
72%
09:00
18°
1012.0 hPa
14%
14.7°
3
Windvlaag: 7.1 m/s
78%
10:00
19°
1012.0 hPa
24%
14.1°
4
Windvlaag: 7.8 m/s
83%
11:00
20°
1012.1 hPa
70%
14.5°
4
Windvlaag: 7.9 m/s
55%
12:00
21°
1012.0 hPa
80%
15.4°
4
Windvlaag: 7.6 m/s
80%
13:00
21°
1011.5 hPa 0.4 mm
82%
13.2°
4
Windvlaag: 6.6 m/s
64% warningclass
14:00
21°
1011.6 hPa 0.7 mm
82%
15.4°
5
Windvlaag: 6.8 m/s
67%
15:00
20°
1011.4 hPa 0.8 mm
82%
16.2°
4
Windvlaag: 6.9 m/s
84%
16:00
20°
1011.1 hPa 0.7 mm
82%
15.3°
4
Windvlaag: 7.7 m/s
68%
17:00
20°
1010.9 hPa
82%
15.0°
4
Windvlaag: 7.6 m/s
59%
18:00
20°
1010.8 hPa
82%
14.4°
4
Windvlaag: 8.4 m/s
67%
19:00
19°
1010.8 hPa
82%
13.6°
4
Windvlaag: 8.3 m/s
85%
20:00
19°
1010.8 hPa
82%
12.8°
4
Windvlaag: 6.5 m/s
62%
21:00
18°
1010.8 hPa
82%
13.7°
4
Windvlaag: 6.8 m/s
59%
22:00
17°
1011.1 hPa
66%
14.6°
4
Windvlaag: 7 m/s
59%
23:00
17°
1011.2 hPa
14%
14.5°
4
Windvlaag: 8.2 m/s
51%
 06:02     21:28    Daglengte: 15:26 Woensdag 28 Jul
00:00
17°
1011.2 hPa
15%
14.3°
4
Windvlaag: 8.1 m/s
53%
01:00
17°
1011.1 hPa
17%
14.5°
4
Windvlaag: 8.3 m/s
61%
02:00
16°
1010.8 hPa
17%
14.7°
3
Windvlaag: 8.4 m/s
77%
03:00
16°
1010.6 hPa
18%
14.6°
3
Windvlaag: 8.9 m/s
25%
04:00
16°
1010.4 hPa
14%
14.5°
3
Windvlaag: 8.4 m/s
14%
05:00
16°
1010.4 hPa
15%
14.3°
4
Windvlaag: 7.9 m/s
45%
06:00
16°
1010.5 hPa
68%
13.8°
4
Windvlaag: 8.2 m/s
22%
07:00
16°
1010.6 hPa
68%
13.3°
4
Windvlaag: 8.7 m/s
64%
08:00
16°
1010.6 hPa
20%
12.6°
5
Windvlaag: 8.7 m/s
25%
09:00
17°
1010.8 hPa
14%
11.7°
6
Windvlaag: 9 m/s
56%
10:00
17°
1011.0 hPa
14%
11.8°
6
Windvlaag: 7.8 m/s
15%
11:00
18°
1010.8 hPa
22%
11.6°
6
Windvlaag: 9.3 m/s
34%
12:00
19°
1010.9 hPa 1.7 mm
27%
11.0°
6
Windvlaag: 9.7 m/s
62%
13:00
19°
1010.8 hPa 1.6 mm
22%
10.9°
6
Windvlaag: 9.5 m/s
59%
14:00
20°
1010.6 hPa 1.8 mm
21%
11.9°
6
Windvlaag: 9.4 m/s
81%
15:00
20°
1010.7 hPa
21%
12.1°
6
Windvlaag: 9.4 m/s
24%
16:00
21°
1010.6 hPa
21%
12.3°
6
Windvlaag: 9.1 m/s
17%
17:00
21°
1010.4 hPa
25%
12.6°
6
Windvlaag: 9.8 m/s
34%
18:00
21°
1010.2 hPa
35%
11.7°
6
Windvlaag: 8.9 m/s
47%
19:00
20°
1010.3 hPa 1.6 mm
80%
10.7°
5
Windvlaag: 7.1 m/s
43%
20:00
19°
1010.4 hPa
75%
11.4°
4
Windvlaag: 4.2 m/s
46%
21:00
18°
1010.6 hPa
21%
12.7°
3
Windvlaag: 4.5 m/s
73%
22:00
17°
1010.6 hPa 1.5 mm
35%
12.8°
3
Windvlaag: 5.5 m/s
63%
23:00
17°
1010.5 hPa
71%
12.3°
4
Windvlaag: 7.8 m/s
10%
 06:03     21:26    Daglengte: 15:23 Donderdag 29 Jul
00:00
16°
1010.5 hPa
22%
12.0°
4
Windvlaag: 8.6 m/s
70%
01:00
15°
1010.8 hPa 2.0 mm
22%
12.7°
4
Windvlaag: 7.4 m/s
93%
02:00
15°
1010.6 hPa 1.6 mm
21%
11.9°
4
Windvlaag: 7.8 m/s
64%
03:00
15°
1010.5 hPa 1.7 mm
21%
12.0°
4
Windvlaag: 8.6 m/s
81%
04:00
14°
1010.4 hPa
21%
11.3°
4
Windvlaag: 8.2 m/s
97%
05:00
14°
1010.3 hPa 1.8 mm
21%
11.3°
5
Windvlaag: 9.2 m/s
81%
06:00
14°
1010.4 hPa 1.8 mm
23%
11.1°
5
Windvlaag: 9.3 m/s
82%
07:00
14°
1010.4 hPa
22%
10.7°
5
Windvlaag: 9.4 m/s
53%
08:00
15°
1010.6 hPa
21%
10.6°
6
Windvlaag: 9.4 m/s
57%
09:00
15°
1011.9 hPa
21%
10.4°
6
Windvlaag: 12 m/s
58%
10:00
16°
1012.0 hPa
21%
9.5°
6
Windvlaag: 11.5 m/s
65%
11:00
17°
1012.4 hPa
21%
9.1°
6
Windvlaag: 12.5 m/s
76%
12:00
18°
1012.5 hPa
22%
9.3°
6
Windvlaag: 12.6 m/s
78%
13:00
18°
1012.6 hPa
41%
8.8°
6
Windvlaag: 12.1 m/s
73%
14:00
19°
1012.5 hPa
21%
8.3°
6
Windvlaag: 12 m/s
72%
Temp/Neerslag /Baro Onweer/Dauwpunt
    Temp Baro Neerslag Dauwpunt Wind Bewolking  
 05:59     21:31    Daglengte: 15:32 Vandaag
17:00
21°
1010.8 hPa 1.3 mm 11.7°
4
83%
20:00
19°
1011.0 hPa 0.9 mm 11.8°
3
63%
23:00
17°
1012.3 hPa   15.1°
3
47%
 06:00     21:29    Daglengte: 15:29 Morgen
02:00
16°
1012.5 hPa   15.3°
3
21%
05:00
15°
1012.2 hPa   14.5°
3
37%
08:00
16°
1012.1 hPa   14.7°
3
72%
11:00
20°
1012.1 hPa   14.5°
4
55%
14:00
21°
1011.6 hPa 1.0 mm 15.4°
5
67%
17:00
20°
1010.9 hPa 1.5 mm 15.0°
4
59%
20:00
19°
1010.8 hPa   12.8°
4
62%
23:00
17°
1011.2 hPa   14.5°
4
51%
 06:02     21:28    Daglengte: 15:26 Woensdag 28 Jul
02:00
16°
1010.8 hPa   14.7°
3
77%
05:00
16°
1010.4 hPa   14.3°
4
45%
08:00
16°
1010.6 hPa   12.6°
5
25%
11:00
18°
1010.8 hPa   11.6°
6
34%
14:00
20°
1010.6 hPa 5.1 mm 11.9°
6
81%
17:00
21°
1010.4 hPa   12.6°
6
34%
20:00
19°
1010.4 hPa 1.6 mm 11.4°
4
46%
23:00
17°
1010.5 hPa 1.5 mm 12.3°
4
10%
 06:03     21:26    Daglengte: 15:23 Donderdag 29 Jul
02:00
15°
1010.6 hPa 3.6 mm 11.9°
4
64%
05:00
14°
1010.3 hPa 3.5 mm 11.3°
5
81%
08:00
15°
1010.6 hPa 1.8 mm 10.6°
6
57%
11:00
17°
1012.4 hPa   9.1°
6
76%
14:00
19°
1012.5 hPa   8.3°
6
72%
17:00
19°
1013.0 hPa 10.7 mm 11.3°
6
1%
20:00
17°
1012.7 hPa 10.8 mm 12.5°
4
1%
23:00
13°
1013.4 hPa 10.8 mm 11.3°
3
1%
 06:05     21:25    Daglengte: 15:20 Vrijdag 30 Jul
02:00
12°
1013.3 hPa 10.8 mm 10.3°
3
1%
05:00
11°
1013.0 hPa 10.8 mm 9.7°
3
0%
08:00
13°
1012.9 hPa 10.8 mm 10.6°
3
0%
11:00
18°
1012.2 hPa 10.8 mm 12.1°
4
1%
14:00
21°
1010.9 hPa 10.8 mm 13.1°
3
1%
17:00
23°
1009.4 hPa 10.8 mm 13.6°
3
0%
20:00
20°
1008.6 hPa 10.9 mm 16.2°
2
1%
23:00
16°
1008.4 hPa 11.1 mm 13.5°
2
1%
 06:06     21:23    Daglengte: 15:17 Zaterdag 31 Jul
02:00
14°
1008.7 hPa 12.1 mm 14.1°
2
1%
05:00
13°
1007.9 hPa 12.6 mm 12.9°
3
1%
08:00
14°
1007.5 hPa 12.6 mm 13.4°
3
0%
11:00
17°
1007.0 hPa 12.9 mm 12.9°
8
0%
14:00
15°
1007.1 hPa 13.8 mm 13.2°
8
0%
17:00
18°
1007.0 hPa 15.0 mm 14.6°
9
0%
20:00
16°
1008.3 hPa 15.9 mm 14.0°
6
0%
23:00
13°
1009.6 hPa 16.0 mm 12.4°
4
0%
 06:08     21:22    Daglengte: 15:14 Zondag 01 Aug
02:00
12°
1009.3 hPa 16.0 mm 11.8°
4
0%
05:00
11°
1008.8 hPa 16.0 mm 10.9°
4
0%
08:00
13°
1008.5 hPa 16.0 mm 12.0°
4
0%
11:00
16°
1008.4 hPa 16.2 mm 12.8°
6
1%
14:00
18°
1008.8 hPa 17.0 mm 10.9°
7
1%
17:00
18°
1009.6 hPa 17.6 mm 11.6°
7
1%
20:00
15°
1010.7 hPa 18.1 mm 11.2°
5
1%
23:00
11°
1013.2 hPa 18.4 mm 10.6°
2
0%
 06:09     21:20    Daglengte: 15:11 Maandag 02 Aug
02:00
10°
Voelt als: 9.1°
1014.5 hPa 18.4 mm 9.4°
2
0%
05:00
Voelt als: 7.9°
1015.1 hPa 18.4 mm 8.7°
2
0%
08:00
11°
1016.1 hPa 18.4 mm 10.2°
2
0%
11:00
15°
1016.6 hPa 18.4 mm 10.5°
3
1%
14:00
18°
1016.4 hPa 36.8 mm 10.8°
2
1%
20:00
16°
1015.6 hPa 37.1 mm 12.9°
1
1%
 06:10     21:19    Daglengte: 15:09 Dinsdag 03 Aug
02:00
11°
1016.5 hPa 37.5 mm 9.8°
2
0%
08:00
12°
1017.4 hPa 37.5 mm 10.2°
2
0%
14:00
20°
1016.6 hPa 37.5 mm 10.6°
4
0%
20:00
18°
1015.7 hPa 37.5 mm 13.7°
2
1%
 06:12     21:17    Daglengte: 15:05 Woensdag 04 Aug
02:00
13°
1015.1 hPa 37.5 mm 10.1°
3
1%
08:00
15°
1013.3 hPa 37.5 mm 11.6°
4
1%
14:00
22°
1011.5 hPa 37.5 mm 13.6°
7
1%
20:00
18°
1011.0 hPa 37.8 mm 15.1°
5
1%
 06:13     21:15    Daglengte: 15:02 Donderdag 05 Aug
02:00
13°
1011.8 hPa 38.4 mm 12.4°
4
0%
08:00
14°
1010.4 hPa 38.4 mm 12.3°
4
0%
14:00
19°
1013.5 hPa 1.7 mm 15.0°
3
61%
20:00
18°
1012.9 hPa 2.4 mm 15.2°
2
59%
 06:15     21:14    Daglengte: 14:59 Vrijdag 06 Aug
02:00
14°
1013.4 hPa 0.7 mm 12.5°
2
63%
08:00
14°
1013.1 hPa 0.8 mm 12.8°
3
58%
14:00
19°
1013.0 hPa 1.6 mm 14.6°
4
54%
20:00
17°
1013.0 hPa 1.9 mm 14.3°
2
46%
 06:16     21:12    Daglengte: 14:56 Zaterdag 07 Aug
02:00
13°
1014.2 hPa 0.4 mm 11.6°
2
44%
08:00
13°
1014.0 hPa 0.7 mm 12.3°
3
58%
14:00
19°
1013.3 hPa 1.7 mm 14.6°
3
59%
20:00
17°
1013.0 hPa 2.2 mm 14.8°
2
51%
 06:18     21:10    Daglengte: 14:52 Zondag 08 Aug
02:00
13°
1014.0 hPa 1.2 mm 12.2°
2
57%
08:00
14°
1013.9 hPa 0.8 mm 12.7°
3
66%
14:00
19°
1013.9 hPa 1.5 mm 15.1°
3
65%
20:00
17°
1014.0 hPa 2.1 mm 15.2°
2
66%
 06:19     21:08    Daglengte: 14:49 Maandag 09 Aug
02:00
13°
1015.7 hPa 0.5 mm 11.9°
2
45%
08:00
13°
1016.4 hPa 0.3 mm 12.1°
2
50%
14:00
20°
1016.8 hPa 0.7 mm 14.5°
3
48%
20:00
18°
1016.5 hPa 0.7 mm 15.0°
1
48%
 06:21     21:06    Daglengte: 14:45 Dinsdag 10 Aug
02:00
13°
1017.8 hPa 0.4 mm 11.8°
2
49%
08:00
14°
1017.9 hPa 0.1 mm 12.5°
2
58%
14:00
20°
1017.7 hPa 0.6 mm 15.1°
2
61%
  CAPE Lifted Index Hail Supercell Tornado SRH 3km CL BTM PRES CL TOP PRES Swiss DWD icon SMHI TS
 05:59     21:31    Daglengte: 15:32 Vandaag
15:00 517 J/kg -1.6 K 0 % 0 % 0 % 0 m²/s² 0 0 -0.55 3
16:00 689 J/kg -2.3 K 0 % 0 % 0 % 0 m²/s² 0 0 -1.16 3
17:00 662 J/kg -2.0 K 0 % 0 % 0 % 0 m²/s² 0 0 -1.07 80
18:00 710 J/kg -2.4 K 0 % 0 % 0 % 0 m²/s² 0 0 -1.71 80
19:00 629 J/kg -2.4 K 0 % 0 % 0 % 0 m²/s² 0 0 -1.32 3
20:00 425 J/kg -1.7 K 0 % 0 % 0 % 0 m²/s² 0 0 -1.43 3
21:00 550 J/kg -1.9 K 0 % 0 % 0 % 0 m²/s² 0 0 -1.33 3
22:00 366 J/kg -1.7 K 0 % 0 % 0 % 0 m²/s² 0 0 -0.62 80
23:00 257 J/kg -1.7 K 0 % 0 % 0 % 0 m²/s² 0 0 -0.86 3
 06:00     21:29    Daglengte: 15:29 Morgen
00:00 116 J/kg -1.7 K 0 % 0 % 0 % 0 m²/s² 0 0 -1.01 2
01:00 0 J/kg -1.3 K 0 % 0 % 0 % 0 m²/s² 0 0 0.23 3
02:00 0 J/kg -1.9 K 0 % 0 % 0 % 0 m²/s² 0 0 0.44 2
03:00 0 J/kg -0.9 K 0 % 0 % 0 % 0 m²/s² 0 0 1.89 2
04:00 0 J/kg 0.0 K 0 % 0 % 0 % 0 m²/s² 0 0 3.18 2
05:00 19 J/kg -1.1 K 0 % 0 % 0 % 0 m²/s² 0 0 2.74 3
06:00 123 J/kg -2.7 K 0 % 0 % 0 % 0 m²/s² 0 0 0.93 3
07:00 108 J/kg -3.2 K 0 % 0 % 0 % 0 m²/s² 0 0 1.15 3
08:00 251 J/kg -2.9 K 0 % 0 % 0 % 0 m²/s² 0 0 0.55 3
09:00 460 J/kg -2.8 K 0 % 0 % 0 % 0 m²/s² 0 0 -0.88 3
10:00 680 J/kg -3.0 K 0 % 0 % 0 % 0 m²/s² 0 0 -2.34 3
11:00 684 J/kg -2.6 K 0 % 0 % 0 % 0 m²/s² 0 0 -2.3 3
12:00 686 J/kg -2.9 K 0 % 0 % 0 % 0 m²/s² 0 0 -2.66 3
13:00 592 J/kg -2.9 K 0 % 0 % 0 % 0 m²/s² 0 0 -2.6 3
14:00 458 J/kg -1.6 K 0 % 0 % 0 % 0 m²/s² 0 0 -1.48 3
15:00 0 J/kg 3.3 K 0 % 0 % 0 % 0 m²/s² 0 0 3.48 3
16:00 7 J/kg 2.4 K 0 % 0 % 0 % 0 m²/s² 0 0 2.82 80
17:00 129 J/kg 0.1 K 0 % 0 % 0 % 0 m²/s² 0 0 0.76 3
18:00 332 J/kg -1.3 K 0 % 0 % 0 % 0 m²/s² 0 0 -1.3 3
19:00 252 J/kg -0.4 K 0 % 0 % 0 % 0 m²/s² 0 0 0.2 61
20:00 56 J/kg 0.0 K 0 % 0 % 0 % 0 m²/s² 0 0 0.75 61
21:00 109 J/kg -0.5 K 0 % 0 % 0 % 0 m²/s² 0 0 0.4 61
22:00 82 J/kg -0.3 K 0 % 0 % 0 % 0 m²/s² 0 0 0.78 3
23:00 14 J/kg -1.0 K 0 % 0 % 0 % 0 m²/s² 0 0 -0.43 3
 06:02     21:28    Daglengte: 15:26 Woensdag 28 Jul
00:00 0 J/kg -0.6 K 0 % 0 % 0 % 0 m²/s² 0 0 0.45 3
01:00 0 J/kg -0.7 K 0 % 0 % 0 % 0 m²/s² 0 0 0.23 3
02:00 0 J/kg -0.4 K 0 % 0 % 0 % 0 m²/s² 0 0 1.19 3
03:00 0 J/kg 0.0 K 0 % 0 % 0 % 0 m²/s² 0 0 1.2 3
04:00 0 J/kg 0.2 K 0 % 0 % 0 % 0 m²/s² 0 0 1.19 3
05:00 0 J/kg 0.3 K 0 % 0 % 0 % 0 m²/s² 0 0 1.14 3
06:00 31 J/kg 1.2 K 0 % 0 % 0 % 0 m²/s² 0 0 2.82 2
07:00 42 J/kg 1.5 K 0 % 0 % 0 % 0 m²/s² 0 0 3.24 3
08:00 13 J/kg 1.5 K 0 % 0 % 0 % 0 m²/s² 0 0 3.9 2
09:00 20 J/kg 1.6 K 0 % 0 % 0 % 0 m²/s² 0 0 4.09 3
10:00 38 J/kg 2.1 K 0 % 0 % 0 % 0 m²/s² 0 0 5.13 2
11:00 18 J/kg 2.6 K 0 % 0 % 0 % 0 m²/s² 0 0 6.35 2
12:00 18 J/kg 2.8 K 0 % 0 % 0 % 0 m²/s² 0 0 6.76 3
13:00 35 J/kg 2.6 K 0 % 0 % 0 % 0 m²/s² 0 0 6.35 2
14:00 60 J/kg 2.0 K 0 % 0 % 0 % 0 m²/s² 0 0 5.21 3
15:00 79 J/kg 1.6 K 0 % 0 % 0 % 0 m²/s² 0 0 4.81 2
16:00 81 J/kg 1.6 K 0 % 0 % 0 % 0 m²/s² 0 0 5.17 2
17:00 104 J/kg 1.0 K 0 % 0 % 0 % 0 m²/s² 0 0 4.75 2
18:00 90 J/kg 1.6 K 0 % 0 % 0 % 0 m²/s² 0 0 5.14 3
19:00 73 J/kg 2.2 K 0 % 0 % 0 % 0 m²/s² 0 0 6.13 3
20:00 96 J/kg 2.1 K 0 % 0 % 0 % 0 m²/s² 0 0 5.85 2
21:00 114 J/kg 2.3 K 0 % 0 % 0 % 0 m²/s² 0 0 5.57 2
22:00 80 J/kg 2.9 K 0 % 0 % 0 % 0 m²/s² 0 0 6.17 3
23:00 47 J/kg 3.6 K 0 % 0 % 0 % 0 m²/s² 0 0 6.96 2
 06:03     21:26    Daglengte: 15:23 Donderdag 29 Jul
00:00 21 J/kg 3.9 K 0 % 0 % 0 % 0 m²/s² 0 0 7.83 3
01:00 0 J/kg 4.2 K 0 % 0 % 0 % 0 m²/s² 0 0 7.65 3
02:00 0 J/kg 5.1 K 0 % 0 % 0 % 0 m²/s² 0 0 8.64 3
03:00 0 J/kg 5.6 K 0 % 0 % 0 % 0 m²/s² 0 0 10.55 2
04:00 1 J/kg 6.4 K 0 % 0 % 0 % 0 m²/s² 0 0 12.73 3
05:00 0 J/kg 8.1 K 0 % 0 % 0 % 0 m²/s² 0 0 14.43 2
06:00 6 J/kg 8.8 K 0 % 0 % 0 % 0 m²/s² 0 0 15.31 3
07:00 24 J/kg 9.0 K 0 % 0 % 0 % 0 m²/s² 0 0 15.51 3
08:00 37 J/kg 9.1 K 0 % 0 % 0 % 0 m²/s² 0 0 15.22 3
09:00 59 J/kg 9.0 K 0 % 0 % 0 % 0 m²/s² 0 0 14.49 3
10:00 62 J/kg 8.8 K 0 % 0 % 0 % 0 m²/s² 0 0 13.51 3
11:00 66 J/kg 8.7 K 0 % 0 % 0 % 0 m²/s² 0 0 14.64 3
12:00 70 J/kg 8.0 K 0 % 0 % 0 % 0 m²/s² 0 0 13.91 3
13:00 57 J/kg 7.2 K 0 % 0 % 0 % 0 m²/s² 0 0 12.93 3
14:00 41 J/kg 6.8 K 0 % 0 % 0 % 0 m²/s² 0 0 11.93 3
Temp Baro Wind Neerslag
  EWN Forecast EWN WRFDA DWD ICON FMI HIRLAM MET Norway GFS
 05:59     21:31    Daglengte: 15:32 Vandaag
17:00 20.8° 1010.8 hPa 4.1 m/s 1.3 mm 21.7° 1010.0 hPa 5.3 m/s 0.2 mm 20.6° 1011.1 hPa 3.8 m/s -0.8 mm 22.8° 1009.8 hPa 5.6 m/s 0.0 mm 20.0° 1010.9 hPa 5.1 m/s
20:00 18.8° 1011.0 hPa 3.3 m/s 0.9 mm 18.8° 1010.5 hPa 3.1 m/s 0.5 mm 18.4° 1011.2 hPa 3.2 m/s 0.9 mm 21.4° 1010.1 hPa 4.7 m/s 0.0 mm 17.9° 1011.0 hPa 4.1 m/s
23:00 17.2° 1012.3 hPa 3.1 m/s 0.0 mm 17.0° 1011.2 hPa 3.9 m/s 1.1 mm 17.2° 1012.6 hPa 2.2 m/s 0.5 mm 18.3° 1011.2 hPa 3.7 m/s 0.0 mm 15.0° 1011.9 hPa 2.8 m/s
 06:00     21:29    Daglengte: 15:29 Morgen
02:00 16.3° 1012.5 hPa 2.9 m/s 0.0 mm 14.5° 1011.3 hPa 3.3 m/s 1.4 mm 16.5° 1012.7 hPa 2.2 m/s 0.1 mm 16.5° 1011.7 hPa 2.8 m/s 0.0 mm 14.0° 1012.4 hPa 2.6 m/s
05:00 15.2° 1012.2 hPa 2.9 m/s 0.0 mm 14.9° 1010.6 hPa 3.6 m/s 1.4 mm 15.9° 1012.6 hPa 1.8 m/s 0.0 mm 15.2° 1011.5 hPa 2.9 m/s 0.0 mm 13.6° 1012.0 hPa 2.4 m/s
08:00 16.5° 1012.1 hPa 3.3 m/s 0.0 mm 17.6° 1010.4 hPa 3.4 m/s 1.4 mm 16.8° 1012.8 hPa 1.7 m/s 0.0 mm 16.3° 1011.3 hPa 4.0 m/s 0.0 mm 15.5° 1011.9 hPa 2.4 m/s
11:00 19.9° 1012.1 hPa 4.2 m/s 0.0 mm 20.3° 1011.1 hPa 3.8 m/s 1.4 mm 19.9° 1012.5 hPa 3.8 m/s 0.0 mm 20.9° 1011.3 hPa 4.6 m/s 0.0 mm 19.1° 1011.9 hPa 4.5 m/s
14:00 20.7° 1011.6 hPa 4.6 m/s 1.0 mm 21.3° 1011.6 hPa 6.4 m/s 1.5 mm 20.6° 1012.4 hPa 4.4 m/s 0.4 mm 21.9° 1010.5 hPa 4.7 m/s 0.0 mm 21.2° 1011.3 hPa 4.5 m/s
17:00 20.3° 1010.9 hPa 4.3 m/s 1.5 mm 20.9° 1010.4 hPa 4.7 m/s 4.6 mm 20.2° 1011.6 hPa 4.0 m/s 0.8 mm 21.2° 1009.7 hPa 5.6 m/s 0.0 mm 20.6° 1010.8 hPa 4.0 m/s
20:00 18.5° 1010.8 hPa 3.7 m/s 0.0 mm 18.8° 1009.8 hPa 5.0 m/s 10.4 mm 18.4° 1011.4 hPa 2.5 m/s 0.3 mm 20.2° 1009.7 hPa 6.0 m/s 0.0 mm 16.3° 1010.9 hPa 5.0 m/s
23:00 17.0° 1011.2 hPa 3.8 m/s 0.0 mm 16.8° 1010.1 hPa 4.3 m/s 12.1 mm 17.1° 1011.4 hPa 2.6 m/s 0.1 mm 17.4° 1011.2 hPa 3.9 m/s 0.0 mm 15.3° 1011.8 hPa 3.6 m/s
 06:02     21:28    Daglengte: 15:26 Woensdag 28 Jul
02:00 15.9° 1010.8 hPa 2.7 m/s 0.0 mm 15.3° 1009.3 hPa 3.9 m/s 12.2 mm 16.7° 1010.2 hPa 2.3 m/s 0.0 mm 15.9° 1011.4 hPa 2.0 m/s 0.0 mm 15.0° 1011.2 hPa 5.1 m/s
05:00 15.8° 1010.4 hPa 3.8 m/s 0.0 mm 14.6° 1009.4 hPa 4.0 m/s 12.3 mm 15.9° 1009.8 hPa 3.2 m/s 0.0 mm 16.3° 1011.0 hPa 3.7 m/s 0.0 mm 14.7° 1010.6 hPa 5.2 m/s
08:00 16.3° 1010.6 hPa 4.8 m/s 0.0 mm 15.4° 1009.7 hPa 4.3 m/s 12.4 mm 16.5° 1009.9 hPa 4.8 m/s 0.1 mm 17.0° 1011.6 hPa 5.9 m/s 0.0 mm 15.6° 1011.1 hPa 5.0 m/s
11:00 18.2° 1010.8 hPa 5.8 m/s 0.0 mm 18.9° 1009.8 hPa 5.9 m/s 12.6 mm 18.4° 1011.0 hPa 5.9 m/s 0.0 mm 17.9° 1011.3 hPa 6.9 m/s
14:00 19.8° 1010.6 hPa 6.5 m/s 5.1 mm 20.2° 1010.1 hPa 6.4 m/s 12.6 mm 20.2° 1010.6 hPa 6.4 m/s 0.0 mm 19.8° 1011.6 hPa 7.0 m/s
17:00 21.1° 1010.4 hPa 6.0 m/s 0.0 mm 21.3° 1009.8 hPa 6.6 m/s 12.6 mm 21.7° 1010.3 hPa 6.0 m/s 0.0 mm 20.2° 1011.2 hPa 6.9 m/s
20:00 19.3° 1010.4 hPa 3.8 m/s 1.6 mm 20.5° 1009.3 hPa 5.4 m/s 12.6 mm 19.6° 1010.4 hPa 3.8 m/s 0.1 mm 17.3° 1010.7 hPa 5.6 m/s
23:00 16.7° 1010.5 hPa 3.8 m/s 1.5 mm 16.7° 1009.2 hPa 4.8 m/s 12.6 mm 17.6° 1010.8 hPa 3.0 m/s 0.0 mm 14.7° 1010.6 hPa 4.5 m/s
 06:03     21:26    Daglengte: 15:23 Donderdag 29 Jul
02:00 14.9° 1010.6 hPa 3.5 m/s 3.6 mm 14.9° 1009.4 hPa 3.2 m/s 12.7 mm 16.3° 1010.8 hPa 3.3 m/s 0.0 mm 14.1° 1010.7 hPa 4.9 m/s
05:00 14.1° 1010.3 hPa 4.7 m/s 3.5 mm 14.2° 1009.0 hPa 4.2 m/s 13.4 mm 15.0° 1011.2 hPa 4.6 m/s 0.0 mm 12.4° 1011.1 hPa 5.5 m/s
08:00 14.6° 1010.6 hPa 5.6 m/s 1.8 mm 14.7° 1009.3 hPa 5.8 m/s 13.5 mm 14.9° 1012.1 hPa 4.9 m/s 0.0 mm 12.8° 1011.7 hPa 6.1 m/s
11:00 16.9° 1012.4 hPa 5.7 m/s 0.0 mm 17.3° 1009.8 hPa 7.8 m/s 13.5 mm 16.8° 1013.0 hPa 5.2 m/s 0.0 mm 16.4° 1012.8 hPa 7.6 m/s
14:00 19.0° 1012.5 hPa 5.9 m/s 0.0 mm 19.4° 1010.4 hPa 8.1 m/s 13.5 mm 18.9° 1013.0 hPa 5.3 m/s 0.0 mm 17.8° 1013.2 hPa 6.9 m/s
17:00 18.9° 1013.0 hPa 6.3 m/s 10.7 mm 18.9° 1013.0 hPa 6.3 m/s 10.7 mm
20:00 17.1° 1012.7 hPa 4.4 m/s 10.8 mm 17.1° 1012.7 hPa 4.4 m/s 10.8 mm
23:00 13.1° 1013.4 hPa 2.9 m/s 10.8 mm 13.0° 1013.4 hPa 2.9 m/s 10.8 mm
 06:05     21:25    Daglengte: 15:20 Vrijdag 30 Jul
02:00 11.6° 1013.3 hPa 3.1 m/s 10.8 mm 11.6° 1013.3 hPa 3.1 m/s 10.8 mm
05:00 10.8° 1013.0 hPa 2.9 m/s 10.8 mm 10.8° 1013.0 hPa 2.9 m/s 10.8 mm
08:00 13.2° 1012.9 hPa 2.7 m/s 10.8 mm 13.2° 1012.9 hPa 2.7 m/s 10.8 mm
11:00 18.0° 1012.2 hPa 3.5 m/s 10.8 mm 18.0° 1012.2 hPa 3.5 m/s 10.8 mm
14:00 21.4° 1010.9 hPa 3.3 m/s 10.8 mm 21.4° 1010.9 hPa 3.3 m/s 10.8 mm
17:00 23.0° 1009.4 hPa 3.1 m/s 10.8 mm 23.0° 1009.4 hPa 3.1 m/s 10.8 mm
20:00 20.1° 1008.6 hPa 2.2 m/s 10.9 mm 20.1° 1008.6 hPa 2.2 m/s 10.9 mm
23:00 16.1° 1008.4 hPa 2.4 m/s 11.1 mm 16.1° 1008.4 hPa 2.4 m/s 11.1 mm
 06:06     21:23    Daglengte: 15:17 Zaterdag 31 Jul
02:00 14.4° 1008.7 hPa 1.9 m/s 12.1 mm 14.4° 1008.7 hPa 1.9 m/s 12.1 mm
05:00 13.2° 1007.9 hPa 2.7 m/s 12.6 mm 13.2° 1007.9 hPa 2.7 m/s 12.6 mm
08:00 14.2° 1007.5 hPa 3.0 m/s 12.6 mm 14.2° 1007.5 hPa 3.0 m/s 12.6 mm
11:00 17.1° 1007.0 hPa 8.0 m/s 12.9 mm 17.1° 1007.0 hPa 8.0 m/s 12.9 mm
14:00 15.5° 1007.1 hPa 8.4 m/s 13.8 mm 15.5° 1007.1 hPa 8.4 m/s 13.8 mm
17:00 17.5° 1007.0 hPa 8.5 m/s 15.0 mm 17.5° 1007.0 hPa 8.5 m/s 15.0 mm
20:00 16.4° 1008.3 hPa 5.6 m/s 15.9 mm 16.4° 1008.3 hPa 5.6 m/s 15.9 mm
23:00 13.0° 1009.6 hPa 3.6 m/s 16.0 mm 13.0° 1009.6 hPa 3.6 m/s 16.0 mm
 06:08     21:22    Daglengte: 15:14 Zondag 01 Aug
02:00 12.3° 1009.3 hPa 3.8 m/s 16.0 mm 12.3° 1009.3 hPa 3.8 m/s 16.0 mm
05:00 11.4° 1008.8 hPa 3.5 m/s 16.0 mm 11.4° 1008.8 hPa 3.5 m/s 16.0 mm
08:00 13.1° 1008.5 hPa 4.4 m/s 16.0 mm 13.1° 1008.5 hPa 4.4 m/s 16.0 mm
11:00 16.3° 1008.4 hPa 6.3 m/s 16.2 mm 16.3° 1008.4 hPa 6.3 m/s 16.2 mm
14:00 18.2° 1008.8 hPa 6.6 m/s 17.0 mm 18.2° 1008.8 hPa 6.6 m/s 17.0 mm
17:00 17.7° 1009.6 hPa 6.5 m/s 17.6 mm 17.7° 1009.6 hPa 6.5 m/s 17.6 mm
20:00 15.2° 1010.7 hPa 5.1 m/s 18.1 mm 15.2° 1010.7 hPa 5.1 m/s 18.1 mm
23:00 11.2° 1013.2 hPa 2.5 m/s 18.4 mm 11.2° 1013.2 hPa 2.5 m/s 18.4 mm
 06:09     21:20    Daglengte: 15:11 Maandag 02 Aug
02:00 9.9° 1014.5 hPa 1.9 m/s 18.4 mm 9.9° 1014.5 hPa 1.9 m/s 18.4 mm
05:00 9.0° 1015.1 hPa 2.1 m/s 18.4 mm 9.0° 1015.1 hPa 2.1 m/s 18.4 mm
08:00 11.0° 1016.1 hPa 2.1 m/s 18.4 mm 11.0° 1016.1 hPa 2.2 m/s 18.4 mm
11:00 15.4° 1016.6 hPa 2.8 m/s 18.4 mm 15.4° 1016.6 hPa 2.8 m/s 18.4 mm
14:00 17.6° 1016.4 hPa 2.2 m/s 18.4 mm 17.6° 1016.4 hPa 2.2 m/s 18.4 mm
20:00 16.2° 1015.6 hPa 1.2 m/s 18.7 mm 16.2° 1015.6 hPa 1.2 m/s 18.7 mm
 06:10     21:19    Daglengte: 15:09 Dinsdag 03 Aug
02:00 10.8° 1016.5 hPa 2.4 m/s 18.7 mm 10.8° 1016.5 hPa 2.4 m/s 18.7 mm
08:00 11.7° 1017.4 hPa 2.3 m/s 18.7 mm 11.7° 1017.4 hPa 2.3 m/s 18.7 mm
14:00 19.6° 1016.6 hPa 3.5 m/s 18.7 mm 19.6° 1016.6 hPa 3.5 m/s 18.7 mm
20:00 17.5° 1015.7 hPa 2.2 m/s 18.7 mm 17.5° 1015.7 hPa 2.2 m/s 18.7 mm
 06:12     21:17    Daglengte: 15:05 Woensdag 04 Aug
02:00 12.9° 1015.1 hPa 3.2 m/s 18.7 mm 12.9° 1015.1 hPa 3.2 m/s 18.7 mm
08:00 15.2° 1013.3 hPa 4.0 m/s 18.7 mm 15.2° 1013.3 hPa 4.0 m/s 18.7 mm
14:00 22.1° 1011.5 hPa 6.8 m/s 18.7 mm 22.1° 1011.5 hPa 6.8 m/s 18.7 mm
20:00 18.4° 1011.0 hPa 5.0 m/s 19.0 mm 18.4° 1011.0 hPa 5.0 m/s 19.0 mm
 06:13     21:15    Daglengte: 15:02 Donderdag 05 Aug
02:00 13.2° 1011.8 hPa 4.0 m/s 19.2 mm 13.2° 1011.8 hPa 4.0 m/s 19.2 mm
08:00 13.7° 1010.4 hPa 4.1 m/s 19.2 mm 13.7° 1010.4 hPa 4.1 m/s 19.2 mm
14:00 19.0° 1013.5 hPa 2.7 m/s 1.7 mm
20:00 17.6° 1012.9 hPa 1.6 m/s 2.4 mm
 06:15     21:14    Daglengte: 14:59 Vrijdag 06 Aug
02:00 13.5° 1013.4 hPa 2.1 m/s 0.7 mm
08:00 13.8° 1013.1 hPa 3.1 m/s 0.8 mm
14:00 19.2° 1013.0 hPa 4.0 m/s 1.6 mm
20:00 17.0° 1013.0 hPa 2.3 m/s 1.9 mm
 06:16     21:12    Daglengte: 14:56 Zaterdag 07 Aug
02:00 12.6° 1014.2 hPa 2.3 m/s 0.4 mm
08:00 13.3° 1014.0 hPa 2.7 m/s 0.7 mm
14:00 19.0° 1013.3 hPa 3.4 m/s 1.7 mm
20:00 17.1° 1013.0 hPa 1.9 m/s 2.2 mm
 06:18     21:10    Daglengte: 14:52 Zondag 08 Aug
02:00 13.3° 1014.0 hPa 2.1 m/s 1.2 mm
08:00 13.7° 1013.9 hPa 2.7 m/s 0.8 mm
14:00 19.2° 1013.9 hPa 3.5 m/s 1.5 mm
20:00 17.4° 1014.0 hPa 1.5 m/s 2.1 mm
 06:19     21:08    Daglengte: 14:49 Maandag 09 Aug
02:00 13.1° 1015.7 hPa 1.8 m/s 0.5 mm
08:00 13.3° 1016.4 hPa 2.2 m/s 0.3 mm
14:00 19.9° 1016.8 hPa 2.8 m/s 0.7 mm
20:00 17.9° 1016.5 hPa 1.4 m/s 0.7 mm
 06:21     21:06    Daglengte: 14:45 Dinsdag 10 Aug
02:00 13.1° 1017.8 hPa 1.7 m/s 0.4 mm
08:00 14.0° 1017.9 hPa 1.8 m/s 0.1 mm
14:00 20.5° 1017.7 hPa 2.3 m/s 0.6 mm
FMI Hirlam - 7.5 km EWN WRFDA - 12 km DWD ICON - 7 km GFS - 25 km Basiskaart






























































Updatetijd (Europe/Amsterdam) Resolutie Lengte Stap
FMI Hirlam 14:00, 20:00, 02:00, 08:00 7.5 km 49h 1h
EWN WRFDA 10:30, 16:30, 22:30, 04:30 12 km 73h 1h
DWD ICON 11:45, 17:45, 23:45, 05:45 7 km 75h 1h
GFS 14:15, 20:15, 02:15, 08:15 25 km 237h 3h
30+ mm
25-30 mm
20-25 mm
15-20 mm
10-15 mm
6-10 mm
4-6 mm
2-4 mm
1-2 mm
0.5-1 mm
0.2-0.5 mm
0.1-0.2 mm
30+ mm
25-30 mm
20-25 mm
15-20 mm
10-15 mm
6-10 mm
4-6 mm
2-4 mm
1-2 mm
0.5-1 mm
0.2-0.5 mm
0.1-0.2 mm
Sneeuwval
Natte sneeuw
Hagel
Vorst
30+ mm
25-30 mm
20-25 mm
15-20 mm
10-15 mm
6-10 mm
4-6 mm
2-4 mm
1-2 mm
0.5-1 mm
0.2-0.5 mm
0.1-0.2 mm
Sneeuwval
Natte sneeuw
Hagel
Vorst
Onweer
50 mm
40 mm
30 mm
26 mm
22 mm
18 mm
14 mm
10 mm
9 mm
8 mm
7 mm
6 mm
5 mm
4.5 mm
4 mm
3.5 mm
3 mm
2.5 mm
2 mm
1.5 mm
1 mm
0.8 mm
0.6 mm
0.4 mm
0.2 mm
0.05 mm
35°
30°
25°
20°
15°
10°
-5°
-10°
-15°
-20°
-25°
-30°
-35°
33> m/s
29 m/s
25 m/s
21 m/s
17 m/s
14 m/s
11 m/s
8 m/s
5 m/s
3 m/s
0 m/s
2600 J/kg
2400 J/kg
2200 J/kg
2000 J/kg
1800 J/kg
1600 J/kg
1400 J/kg
1200 J/kg
1000 J/kg
800 J/kg
600 J/kg
400 J/kg
200 J/kg
70 dBZ
65 dBZ
60 dBZ
55 dBZ
50 dBZ
45 dBZ
40 dBZ
35 dBZ
30 dBZ
25 dBZ
20 dBZ
15 dBZ